QPF
0.07 0.06 0.06 0.07 0.08 0.08 0.09 0.09 0.09 0.08 0.07 0.05 0.03 0.03 0.05 0.06 0.08 0.09 0.06 0.04 0.04 0.04 0.03 0.04 0.05 0.05 0.05 0.06 0.08 0.08 0.07 0.06 0.07 0.07 0.06 0.07 0.08 0.09 0.08 0.07 0.06 0.05 0.04
0.11 0.11 0.11 0.11 0.10 0.09 0.07 0.07 0.06 0.05 0.04 0.03 0.02 0.02 0.02 0.03 0.05 0.05 0.04 0.04 0.03 0.03 0.03 0.04 0.05 0.05 0.05 0.06 0.07 0.08 0.08 0.08 0.08 0.07 0.06 0.07 0.07 0.09 0.09 0.07 0.06 0.05 0.04
0.09 0.10 0.10 0.08 0.06 0.06 0.05 0.06 0.05 0.04 0.03 0.02 0.02 0.02 0.02 0.02 0.02 0.02 0.03 0.05 0.05 0.04 0.03 0.03 0.04 0.04 0.05 0.06 0.08 0.09 0.09 0.09 0.08 0.08 0.07 0.08 0.08 0.09 0.09 0.08 0.07 0.06 0.04
0.04 0.07 0.08 0.08 0.07 0.06 0.05 0.05 0.05 0.03 0.03 0.02 0.02 0.02 0.01 0.02 0.02 0.03 0.03 0.04 0.04 0.04 0.03 0.02 0.03 0.03 0.04 0.05 0.07 0.08 0.09 0.09 0.08 0.09 0.08 0.07 0.08 0.07 0.07 0.06 0.06 0.05 0.04
0.02 0.02 0.04 0.05 0.05 0.04 0.03 0.03 0.04 0.05 0.05 0.03 0.02 0.02 0.01 0.02 0.03 0.04 0.03 0.03 0.03 0.04 0.05 0.04 0.03 0.02 0.02 0.03 0.04 0.05 0.06 0.05 0.05 0.05 0.05 0.06 0.07 0.06 0.05 0.04 0.05 0.05 0.05
0.02 0.03 0.05 0.04 0.03 0.04 0.04 0.05 0.05 0.06 0.05 0.04 0.02 0.02 0.01 0.01 0.01 0.02 0.03 0.03 0.03 0.03 0.04 0.05 0.06 0.04 0.03 0.02 0.02 0.02 0.03 0.03 0.03 0.03 0.04 0.04 0.04 0.04 0.03 0.03 0.05 0.06 0.06
0.03 0.05 0.04 0.05 0.04 0.03 0.04 0.04 0.05 0.06 0.06 0.05 0.05 0.04 0.02 0.02 0.01 0.01 0.01 0.01 0.02 0.03 0.03 0.04 0.04 0.04 0.03 0.03 0.03 0.02 0.03 0.04 0.03 0.03 0.03 0.04 0.04 0.04 0.04 0.04 0.04 0.05 0.07
0.03 0.03 0.05 0.05 0.04 0.05 0.05 0.05 0.07 0.07 0.07 0.07 0.08 0.08 0.07 0.06 0.03 0.01 0.01 0.01 0.02 0.03 0.04 0.04 0.04 0.05 0.04 0.05 0.04 0.03 0.04 0.03 0.03 0.03 0.03 0.04 0.03 0.03 0.04 0.04 0.04 0.06 0.07
0.02 0.03 0.04 0.05 0.05 0.05 0.06 0.07 0.08 0.09 0.10 0.09 0.08 0.07 0.08 0.08 0.04 0.02 0.02 0.03 0.03 0.04 0.04 0.05 0.06 0.09 0.08 0.07 0.06 0.04 0.03 0.02 0.02 0.02 0.02 0.03 0.04 0.04 0.04 0.04 0.04 0.05 0.05
0.02 0.02 0.03 0.04 0.04 0.05 0.06 0.06 0.08 0.08 0.09 0.08 0.08 0.06 0.05 0.06 0.05 0.05 0.05 0.04 0.04 0.04 0.03 0.03 0.04 0.04 0.05 0.06 0.07 0.04 0.02 0.02 0.01 0.01 0.01 0.01 0.03 0.03 0.03 0.02 0.03 0.04 0.04
0.03 0.02 0.02 0.03 0.04 0.06 0.06 0.06 0.08 0.07 0.06 0.06 0.06 0.06 0.06 0.05 0.05 0.05 0.05 0.06 0.05 0.04 0.02 0.02 0.02 0.03 0.03 0.04 0.06 0.03 0.02 0.02 0.01 0.01 0.01 0.01 0.01 0.01 0.02 0.02 0.02 0.04 0.05
0.04 0.03 0.03 0.04 0.04 0.06 0.05 0.05 0.05 0.05 0.05 0.05 0.05 0.07 0.06 0.06 0.05 0.05 0.05 0.05 0.06 0.04 0.02 0.01 0.01 0.01 0.02 0.02 0.03 0.03 0.03 0.04 0.02 0.01 0.01 0.01 0.01 0.01 0.01 0.01 0.01 0.02 0.04
0.05 0.05 0.05 0.05 0.04 0.05 0.05 0.04 0.03 0.03 0.04 0.05 0.05 0.06 0.05 0.05 0.04 0.05 0.06 0.04 0.05 0.04 0.03 0.02 0.02 0.02 0.03 0.03 0.04 0.04 0.03 0.03 0.03 0.02 0.02 0.02 0.02 0.02 0.01 0.01 0.01 0.02 0.03
0.05 0.06 0.06 0.05 0.04 0.04 0.04 0.05 0.03 0.03 0.03 0.03 0.04 0.06 0.04 0.03 0.03 0.04 0.05 0.05 0.04 0.03 0.03 0.02 0.02 0.02 0.02 0.02 0.03 0.04 0.03 0.02 0.02 0.02 0.01 0.01 0.01 0.01 0.02 0.01 0.02 0.02 0.02
0.04 0.05 0.05 0.04 0.05 0.04 0.04 0.04 0.03 0.03 0.03 0.03 0.04 0.05 0.04 0.03 0.02 0.02 0.03 0.04 0.05 0.05 0.03 0.03 0.02 0.02 0.01 0.01 0.02 0.02 0.04 0.02 0.01 0.01 0.01 0.01 0.01 0.01 0.01 0.01 0.01 0.02 0.02
0.03 0.03 0.03 0.04 0.04 0.03 0.03 0.04 0.03 0.03 0.03 0.03 0.04 0.05 0.06 0.04 0.03 0.02 0.03 0.03 0.04 0.05 0.04 0.03 0.03 0.01 0.01 0.01 0.01 0.02 0.03 0.03 0.02 0.02 0.03 0.03 0.03 0.02 0.02 0.02 0.01 0.01 0.01
0.03 0.03 0.04 0.03 0.03 0.03 0.03 0.03 0.03 0.03 0.04 0.03 0.03 0.03 0.04 0.06 0.05 0.03 0.03 0.04 0.04 0.04 0.05 0.03 0.02 0.02 0.02 0.02 0.02 0.03 0.02 0.04 0.03 0.04 0.03 0.02 0.02 0.02 0.02 0.02 0.01 0.01 0.01
0.03 0.02 0.03 0.03 0.03 0.03 0.02 0.02 0.02 0.03 0.04 0.03 0.03 0.03 0.04 0.05 0.05 0.04 0.04 0.03 0.03 0.05 0.06 0.04 0.03 0.02 0.02 0.03 0.03 0.03 0.03 0.03 0.03 0.04 0.02 0.02 0.02 0.02 0.02 0.02 0.02 0.01 0.01
0.03 0.03 0.03 0.03 0.03 0.03 0.02 0.02 0.02 0.02 0.03 0.03 0.03 0.03 0.04 0.05 0.06 0.06 0.05 0.04 0.03 0.03 0.05 0.06 0.04 0.04 0.03 0.03 0.04 0.04 0.04 0.04 0.03 0.03 0.02 0.02 0.02 0.03 0.02 0.02 0.02 0.01 0.01
0.02 0.02 0.03 0.03 0.02 0.03 0.02 0.02 0.02 0.02 0.03 0.04 0.04 0.04 0.04 0.05 0.05 0.05 0.05 0.04 0.04 0.05 0.06 0.06 0.05 0.06 0.05 0.05 0.06 0.05 0.05 0.04 0.03 0.01 0.02 0.02 0.02 0.03 0.02 0.02 0.02 0.01 0.01
0.02 0.03 0.03 0.03 0.02 0.02 0.02 0.02 0.02 0.02 0.03 0.03 0.03 0.03 0.03 0.04 0.04 0.03 0.03 0.03 0.04 0.05 0.05 0.05 0.06 0.06 0.05 0.05 0.04 0.05 0.06 0.05 0.04 0.03 0.03 0.02 0.02 0.02 0.03 0.03 0.03 0.03 0.02
0.04 0.04 0.03 0.03 0.02 0.01 0.01 0.01 0.01 0.02 0.02 0.02 0.03 0.03 0.03 0.03 0.02 0.02 0.02 0.02 0.02 0.03 0.04 0.05 0.05 0.05 0.05 0.07 0.08 0.08 0.07 0.05 0.04 0.03 0.04 0.03 0.04 0.06 0.07 0.06 0.06 0.05 0.04
0.03 0.04 0.03 0.03 0.02 0.01 0.01 0.01 0.01 0.01 0.01 0.02 0.03 0.03 0.01 0.01 0.01 0.02 0.02 0.02 0.02 0.02 0.02 0.03 0.04 0.04 0.04 0.06 0.08 0.07 0.07 0.07 0.05 0.04 0.05 0.04 0.05 0.07 0.06 0.05 0.06 0.06 0.05
0.03 0.03 0.03 0.03 0.03 0.01 0.01 0.01 0.01 0.01 0.01 0.01 0.01 0.01 0.01 0.02 0.01 0.02 0.03 0.02 0.02 0.02 0.02 0.02 0.03 0.03 0.03 0.03 0.04 0.04 0.05 0.06 0.05 0.04 0.06 0.06 0.06 0.06 0.06 0.05 0.06 0.07 0.09
0.02 0.03 0.03 0.03 0.03 0.02 0.02 0.02 0.02 0.01 0.01 0.00 0.00 0.00 0.01 0.02 0.02 0.02 0.02 0.01 0.02 0.03 0.03 0.04 0.03 0.02 0.02 0.03 0.04 0.04 0.04 0.04 0.04 0.04 0.05 0.06 0.07 0.06 0.05 0.04 0.05 0.08 0.10
0.01 0.01 0.01 0.01 0.02 0.02 0.02 0.02 0.02 0.01 0.01 0.00 0.01 0.01 0.01 0.02 0.03 0.02 0.03 0.03 0.03 0.05 0.06 0.05 0.04 0.04 0.03 0.03 0.04 0.04 0.05 0.05 0.04 0.04 0.04 0.05 0.06 0.07 0.06 0.04 0.04 0.07 0.10
MSLP
1008.00 1007.91 1007.75 1007.57 1007.42 1007.32 1007.28 1007.31 1007.37 1007.43 1007.46 1007.44 1007.39 1007.31 1007.25 1007.25 1007.34 1007.55 1007.85 1008.24 1008.67 1009.11 1009.52 1009.89 1010.21 1010.49 1010.74 1010.99 1011.25 1011.52 1011.82 1012.12 1012.43 1012.75 1013.06 1013.37 1013.68 1013.99 1014.30 1014.61 1014.91 1015.21 1015.49
1008.21 1008.08 1007.89 1007.69 1007.50 1007.35 1007.26 1007.23 1007.24 1007.26 1007.26 1007.22 1007.15 1007.05 1006.96 1006.92 1006.94 1007.07 1007.29 1007.59 1007.96 1008.35 1008.75 1009.14 1009.49 1009.82 1010.12 1010.41 1010.69 1010.97 1011.26 1011.55 1011.85 1012.15 1012.47 1012.81 1013.15 1013.49 1013.83 1014.17 1014.48 1014.78 1015.06
1008.39 1008.25 1008.06 1007.84 1007.62 1007.45 1007.32 1007.24 1007.20 1007.17 1007.13 1007.05 1006.94 1006.81 1006.68 1006.57 1006.52 1006.55 1006.67 1006.87 1007.15 1007.48 1007.85 1008.23 1008.61 1008.99 1009.35 1009.69 1010.01 1010.32 1010.62 1010.92 1011.22 1011.53 1011.86 1012.21 1012.58 1012.95 1013.32 1013.68 1014.02 1014.33 1014.61
1008.51 1008.37 1008.19 1007.98 1007.77 1007.59 1007.44 1007.32 1007.23 1007.15 1007.06 1006.94 1006.79 1006.62 1006.43 1006.26 1006.12 1006.05 1006.05 1006.13 1006.30 1006.54 1006.85 1007.21 1007.61 1008.02 1008.43 1008.83 1009.22 1009.58 1009.91 1010.24 1010.56 1010.88 1011.23 1011.60 1011.99 1012.39 1012.79 1013.17 1013.53 1013.86 1014.17
1008.58 1008.46 1008.30 1008.13 1007.95 1007.78 1007.62 1007.49 1007.36 1007.24 1007.10 1006.94 1006.74 1006.52 1006.29 1006.05 1005.82 1005.63 1005.51 1005.46 1005.49 1005.62 1005.85 1006.15 1006.53 1006.96 1007.42 1007.88 1008.33 1008.75 1009.15 1009.52 1009.88 1010.24 1010.61 1011.00 1011.41 1011.83 1012.26 1012.67 1013.05 1013.41 1013.73
1008.65 1008.55 1008.43 1008.30 1008.16 1008.02 1007.89 1007.75 1007.60 1007.44 1007.27 1007.07 1006.83 1006.57 1006.29 1005.98 1005.67 1005.38 1005.12 1004.93 1004.82 1004.81 1004.91 1005.13 1005.46 1005.88 1006.36 1006.87 1007.39 1007.89 1008.35 1008.79 1009.20 1009.61 1010.01 1010.43 1010.86 1011.31 1011.75 1012.19 1012.59 1012.97 1013.32
1008.78 1008.70 1008.62 1008.54 1008.45 1008.36 1008.25 1008.11 1007.96 1007.78 1007.58 1007.34 1007.08 1006.79 1006.47 1006.11 1005.73 1005.34 1004.96 1004.61 1004.35 1004.18 1004.14 1004.25 1004.50 1004.87 1005.35 1005.89 1006.46 1007.02 1007.57 1008.08 1008.56 1009.02 1009.47 1009.92 1010.38 1010.85 1011.31 1011.76 1012.19 1012.58 1012.94
1009.04 1008.96 1008.91 1008.87 1008.83 1008.78 1008.70 1008.58 1008.42 1008.22 1008.00 1007.75 1007.47 1007.17 1006.82 1006.43 1005.99 1005.52 1005.03 1004.55 1004.13 1003.80 1003.61 1003.58 1003.71 1004.01 1004.45 1004.99 1005.58 1006.20 1006.81 1007.40 1007.95 1008.47 1008.98 1009.47 1009.96 1010.45 1010.93 1011.39 1011.83 1012.23 1012.59
1009.42 1009.33 1009.30 1009.29 1009.29 1009.26 1009.20 1009.09 1008.93 1008.72 1008.49 1008.23 1007.94 1007.63 1007.29 1006.88 1006.42 1005.89 1005.32 1004.74 1004.18 1003.71 1003.35 1003.17 1003.17 1003.36 1003.72 1004.22 1004.81 1005.46 1006.11 1006.75 1007.37 1007.96 1008.52 1009.06 1009.59 1010.10 1010.60 1011.07 1011.51 1011.90 1012.24
1009.88 1009.78 1009.75 1009.75 1009.76 1009.75 1009.70 1009.58 1009.41 1009.19 1008.95 1008.68 1008.41 1008.11 1007.79 1007.40 1006.94 1006.40 1005.79 1005.13 1004.48 1003.87 1003.38 1003.04 1002.90 1002.96 1003.21 1003.63 1004.17 1004.80 1005.46 1006.14 1006.80 1007.44 1008.05 1008.65 1009.22 1009.77 1010.29 1010.77 1011.20 1011.57 1011.88
1010.36 1010.24 1010.20 1010.19 1010.20 1010.19 1010.12 1009.98 1009.79 1009.56 1009.30 1009.04 1008.78 1008.52 1008.23 1007.89 1007.47 1006.96 1006.35 1005.66 1004.95 1004.25 1003.64 1003.17 1002.88 1002.79 1002.91 1003.21 1003.66 1004.23 1004.86 1005.53 1006.21 1006.88 1007.54 1008.19 1008.81 1009.40 1009.94 1010.44 1010.86 1011.21 1011.49
1010.79 1010.65 1010.59 1010.57 1010.56 1010.52 1010.42 1010.26 1010.04 1009.78 1009.51 1009.25 1009.01 1008.79 1008.56 1008.28 1007.93 1007.48 1006.91 1006.25 1005.52 1004.78 1004.09 1003.50 1003.08 1002.84 1002.80 1002.96 1003.28 1003.74 1004.29 1004.92 1005.58 1006.27 1006.96 1007.65 1008.32 1008.95 1009.54 1010.05 1010.47 1010.81 1011.05
1011.11 1010.97 1010.89 1010.85 1010.81 1010.74 1010.60 1010.39 1010.14 1009.85 1009.57 1009.31 1009.10 1008.92 1008.75 1008.55 1008.29 1007.92 1007.43 1006.82 1006.12 1005.38 1004.64 1003.98 1003.44 1003.06 1002.86 1002.85 1003.02 1003.33 1003.77 1004.32 1004.94 1005.61 1006.32 1007.04 1007.75 1008.43 1009.05 1009.59 1010.03 1010.36 1010.57
1011.35 1011.21 1011.13 1011.07 1011.00 1010.88 1010.70 1010.45 1010.15 1009.83 1009.52 1009.27 1009.07 1008.93 1008.82 1008.69 1008.52 1008.24 1007.85 1007.32 1006.69 1005.97 1005.23 1004.52 1003.89 1003.39 1003.05 1002.87 1002.86 1003.02 1003.32 1003.76 1004.30 1004.94 1005.64 1006.38 1007.13 1007.86 1008.52 1009.09 1009.55 1009.88 1010.08
1011.54 1011.41 1011.33 1011.26 1011.17 1011.01 1010.78 1010.49 1010.15 1009.80 1009.47 1009.20 1009.01 1008.89 1008.82 1008.75 1008.65 1008.46 1008.15 1007.72 1007.15 1006.49 1005.78 1005.05 1004.37 1003.78 1003.31 1002.99 1002.82 1002.82 1002.97 1003.28 1003.74 1004.32 1005.00 1005.75 1006.52 1007.28 1007.99 1008.59 1009.07 1009.41 1009.61
1011.73 1011.64 1011.58 1011.50 1011.38 1011.19 1010.93 1010.60 1010.22 1009.83 1009.48 1009.20 1009.00 1008.88 1008.81 1008.77 1008.71 1008.58 1008.34 1007.97 1007.49 1006.89 1006.22 1005.51 1004.82 1004.17 1003.61 1003.18 1002.88 1002.73 1002.76 1002.95 1003.32 1003.84 1004.48 1005.22 1006.00 1006.79 1007.52 1008.15 1008.64 1008.99 1009.20
1012.00 1011.94 1011.89 1011.81 1011.68 1011.47 1011.17 1010.81 1010.41 1010.00 1009.62 1009.31 1009.08 1008.93 1008.85 1008.79 1008.73 1008.60 1008.39 1008.07 1007.64 1007.11 1006.49 1005.83 1005.15 1004.50 1003.91 1003.40 1003.02 1002.78 1002.70 1002.80 1003.08 1003.54 1004.14 1004.86 1005.64 1006.43 1007.17 1007.81 1008.32 1008.68 1008.90
1012.34 1012.31 1012.26 1012.18 1012.04 1011.82 1011.51 1011.13 1010.71 1010.28 1009.88 1009.54 1009.27 1009.07 1008.93 1008.82 1008.70 1008.55 1008.32 1008.01 1007.61 1007.12 1006.57 1005.96 1005.34 1004.72 1004.14 1003.63 1003.21 1002.92 1002.79 1002.82 1003.04 1003.45 1004.01 1004.70 1005.46 1006.24 1006.98 1007.62 1008.13 1008.49 1008.72
1012.71 1012.70 1012.66 1012.57 1012.42 1012.18 1011.87 1011.49 1011.06 1010.63 1010.21 1009.84 1009.52 1009.26 1009.04 1008.84 1008.64 1008.41 1008.13 1007.79 1007.39 1006.94 1006.43 1005.90 1005.35 1004.80 1004.28 1003.80 1003.41 1003.12 1002.97 1002.98 1003.16 1003.53 1004.06 1004.71 1005.45 1006.20 1006.93 1007.56 1008.07 1008.43 1008.67
1013.06 1013.04 1012.99 1012.89 1012.72 1012.48 1012.17 1011.80 1011.38 1010.95 1010.53 1010.13 1009.77 1009.44 1009.12 1008.82 1008.51 1008.18 1007.82 1007.43 1007.01 1006.57 1006.11 1005.64 1005.18 1004.72 1004.29 1003.89 1003.56 1003.31 1003.18 1003.19 1003.37 1003.71 1004.22 1004.84 1005.55 1006.28 1006.99 1007.61 1008.12 1008.49 1008.74
1013.31 1013.27 1013.19 1013.07 1012.89 1012.65 1012.34 1011.98 1011.59 1011.18 1010.76 1010.35 1009.95 1009.55 1009.15 1008.74 1008.32 1007.88 1007.42 1006.96 1006.51 1006.07 1005.64 1005.24 1004.87 1004.51 1004.18 1003.88 1003.63 1003.45 1003.36 1003.40 1003.58 1003.92 1004.41 1005.01 1005.70 1006.41 1007.11 1007.73 1008.24 1008.63 1008.91
1013.43 1013.34 1013.23 1013.08 1012.89 1012.64 1012.34 1012.01 1011.65 1011.26 1010.86 1010.45 1010.03 1009.58 1009.11 1008.60 1008.07 1007.53 1006.99 1006.46 1005.96 1005.51 1005.12 1004.77 1004.48 1004.22 1003.98 1003.78 1003.62 1003.50 1003.47 1003.54 1003.74 1004.07 1004.55 1005.14 1005.81 1006.52 1007.22 1007.86 1008.39 1008.83 1009.15
1013.41 1013.28 1013.13 1012.95 1012.74 1012.49 1012.20 1011.89 1011.56 1011.21 1010.83 1010.43 1009.99 1009.52 1008.99 1008.42 1007.81 1007.19 1006.57 1005.99 1005.46 1005.01 1004.63 1004.33 1004.09 1003.91 1003.76 1003.63 1003.54 1003.48 1003.49 1003.58 1003.79 1004.13 1004.60 1005.18 1005.85 1006.57 1007.29 1007.96 1008.55 1009.05 1009.45
1013.32 1013.16 1012.97 1012.76 1012.53 1012.27 1011.99 1011.70 1011.39 1011.07 1010.71 1010.33 1009.89 1009.40 1008.84 1008.23 1007.57 1006.90 1006.24 1005.63 1005.08 1004.63 1004.27 1004.00 1003.81 1003.67 1003.58 1003.50 1003.45 1003.43 1003.45 1003.55 1003.76 1004.09 1004.55 1005.13 1005.81 1006.55 1007.30 1008.03 1008.69 1009.28 1009.77
1013.23 1013.04 1012.84 1012.61 1012.36 1012.10 1011.83 1011.54 1011.24 1010.93 1010.59 1010.21 1009.77 1009.27 1008.70 1008.08 1007.41 1006.72 1006.05 1005.43 1004.89 1004.45 1004.10 1003.86 1003.70 1003.59 1003.52 1003.47 1003.43 1003.41 1003.43 1003.52 1003.71 1004.02 1004.46 1005.03 1005.71 1006.48 1007.28 1008.07 1008.82 1009.50 1010.10
1013.22 1013.03 1012.81 1012.58 1012.33 1012.06 1011.78 1011.49 1011.19 1010.87 1010.52 1010.14 1009.70 1009.19 1008.62 1008.00 1007.33 1006.66 1006.00 1005.41 1004.89 1004.48 1004.16 1003.95 1003.80 1003.71 1003.65 1003.59 1003.55 1003.51 1003.50 1003.56 1003.71 1003.99 1004.40 1004.96 1005.64 1006.42 1007.26 1008.11 1008.94 1009.72 1010.42
Thickness
5778 5777 5776 5775 5775 5774 5773 5773 5773 5772 5772 5772 5772 5771 5769 5768 5766 5764 5760 5759 5757 5755 5753 5751 5749 5748 5746 5744 5743 5742 5740 5740 5739 5737 5736 5735 5734 5733 5732 5731 5730 5729 5729
5776 5775 5774 5774 5773 5773 5773 5773 5772 5772 5771 5771 5771 5770 5769 5768 5767 5764 5762 5759 5757 5755 5754 5752 5750 5748 5746 5744 5743 5741 5740 5739 5738 5737 5735 5734 5733 5732 5731 5730 5729 5729 5729
5776 5775 5773 5772 5772 5772 5773 5773 5773 5772 5771 5770 5769 5769 5768 5768 5767 5765 5763 5760 5758 5755 5754 5752 5750 5748 5747 5745 5743 5742 5740 5739 5737 5736 5735 5734 5733 5732 5731 5730 5729 5729 5728
5776 5775 5773 5772 5773 5773 5773 5772 5770 5770 5769 5767 5766 5767 5767 5766 5766 5765 5764 5762 5760 5757 5754 5752 5751 5749 5747 5745 5744 5742 5741 5738 5736 5735 5734 5733 5732 5732 5730 5729 5729 5728 5728
5776 5775 5773 5773 5773 5773 5772 5771 5769 5767 5765 5765 5764 5765 5765 5765 5765 5765 5764 5763 5761 5759 5756 5753 5751 5749 5748 5746 5744 5742 5740 5738 5735 5734 5732 5731 5731 5730 5729 5728 5728 5727 5726
5776 5775 5773 5773 5773 5772 5770 5769 5767 5767 5766 5764 5764 5764 5764 5765 5765 5764 5763 5762 5762 5759 5757 5755 5752 5749 5748 5746 5744 5742 5740 5737 5735 5733 5731 5730 5729 5729 5728 5727 5726 5726 5725
5777 5776 5774 5773 5772 5770 5769 5768 5767 5765 5764 5764 5760 5757 5760 5763 5763 5763 5763 5761 5761 5759 5758 5755 5752 5750 5747 5745 5743 5741 5739 5736 5734 5732 5730 5729 5728 5727 5726 5725 5725 5724 5723
5778 5777 5774 5773 5772 5770 5768 5767 5766 5763 5763 5764 5758 5752 5748 5751 5757 5762 5761 5759 5758 5758 5756 5755 5752 5750 5748 5745 5742 5740 5737 5735 5733 5731 5729 5728 5726 5725 5724 5724 5723 5722 5721
5778 5776 5775 5773 5772 5770 5766 5766 5766 5763 5759 5762 5762 5754 5745 5741 5746 5754 5757 5757 5756 5755 5754 5753 5751 5748 5746 5743 5741 5738 5736 5734 5731 5729 5728 5726 5725 5723 5722 5722 5721 5720 5719
5779 5777 5775 5774 5772 5770 5767 5767 5767 5765 5761 5758 5759 5759 5756 5752 5743 5741 5748 5753 5753 5752 5752 5752 5749 5747 5745 5742 5739 5737 5735 5732 5730 5727 5725 5724 5722 5721 5720 5719 5718 5717 5716
5780 5778 5776 5774 5772 5769 5768 5767 5765 5763 5762 5758 5756 5756 5755 5753 5750 5741 5738 5742 5746 5749 5750 5749 5748 5746 5744 5741 5738 5735 5733 5730 5728 5725 5723 5721 5720 5718 5717 5717 5715 5714 5713
5779 5777 5776 5773 5771 5769 5767 5765 5764 5762 5760 5758 5756 5755 5752 5749 5746 5744 5738 5738 5739 5743 5747 5747 5746 5745 5743 5740 5737 5734 5731 5728 5725 5722 5720 5718 5716 5715 5714 5713 5712 5711 5710
5777 5775 5775 5772 5769 5767 5765 5764 5762 5760 5758 5756 5754 5753 5752 5750 5749 5746 5740 5737 5736 5739 5742 5743 5744 5743 5740 5737 5734 5731 5728 5725 5722 5719 5717 5715 5712 5711 5710 5709 5708 5707 5705
5777 5776 5774 5771 5768 5766 5764 5761 5759 5758 5756 5754 5753 5751 5749 5749 5749 5746 5741 5735 5730 5731 5734 5736 5740 5739 5737 5734 5730 5727 5724 5721 5718 5715 5713 5711 5709 5707 5705 5704 5703 5702 5701
5778 5775 5773 5770 5767 5764 5762 5759 5756 5755 5753 5751 5750 5748 5746 5746 5746 5745 5743 5739 5729 5722 5723 5729 5731 5734 5733 5731 5727 5724 5721 5718 5715 5712 5710 5707 5705 5703 5701 5700 5699 5698 5697
5775 5772 5770 5768 5765 5762 5760 5757 5754 5752 5750 5748 5746 5744 5743 5742 5742 5742 5740 5738 5734 5726 5721 5725 5726 5728 5728 5727 5723 5720 5717 5714 5711 5709 5706 5703 5701 5699 5698 5697 5695 5694 5692
5773 5770 5767 5765 5762 5759 5757 5754 5751 5750 5747 5745 5743 5741 5739 5739 5737 5736 5735 5733 5730 5727 5719 5721 5723 5723 5722 5720 5717 5715 5713 5711 5707 5705 5703 5701 5699 5696 5694 5693 5691 5689 5688
5771 5769 5766 5763 5760 5757 5755 5752 5748 5746 5744 5741 5739 5737 5736 5735 5732 5730 5729 5727 5725 5724 5718 5714 5715 5716 5715 5715 5713 5711 5710 5708 5705 5702 5700 5698 5695 5693 5690 5688 5686 5684 5683
5769 5767 5764 5760 5757 5755 5752 5749 5746 5743 5741 5739 5736 5733 5732 5729 5726 5725 5724 5722 5721 5720 5716 5711 5710 5711 5710 5710 5707 5707 5706 5704 5702 5699 5696 5693 5691 5688 5686 5684 5682 5680 5678
5767 5764 5761 5758 5756 5752 5749 5746 5744 5740 5738 5735 5733 5731 5728 5725 5723 5721 5719 5717 5716 5713 5711 5707 5705 5704 5704 5704 5702 5698 5697 5697 5696 5696 5692 5690 5687 5684 5682 5680 5677 5675 5673
5764 5761 5758 5755 5753 5750 5746 5743 5739 5738 5734 5731 5729 5727 5724 5722 5719 5716 5715 5712 5710 5707 5705 5702 5700 5698 5697 5695 5693 5693 5691 5690 5690 5690 5687 5685 5682 5680 5677 5675 5672 5670 5668
5759 5757 5754 5751 5748 5747 5744 5740 5736 5734 5731 5728 5724 5722 5720 5718 5715 5712 5710 5708 5705 5702 5699 5696 5694 5691 5690 5690 5689 5687 5684 5683 5681 5684 5681 5679 5678 5674 5673 5670 5668 5666 5663
5753 5750 5749 5746 5744 5741 5738 5736 5732 5730 5727 5724 5722 5719 5717 5716 5712 5709 5706 5704 5701 5699 5696 5692 5689 5687 5686 5686 5683 5681 5679 5677 5675 5677 5675 5672 5672 5669 5668 5666 5664 5661 5658
5748 5745 5744 5742 5739 5736 5733 5730 5727 5725 5723 5720 5718 5715 5711 5708 5706 5703 5701 5699 5697 5695 5692 5689 5687 5686 5685 5683 5680 5677 5675 5674 5673 5673 5671 5665 5665 5664 5664 5661 5658 5656 5653
5743 5741 5739 5737 5734 5731 5728 5725 5722 5720 5717 5715 5713 5710 5707 5704 5701 5697 5695 5692 5691 5689 5688 5686 5684 5682 5680 5678 5676 5672 5670 5667 5665 5665 5664 5660 5659 5658 5657 5655 5652 5650 5648
5738 5736 5734 5732 5730 5726 5722 5719 5715 5713 5711 5709 5707 5705 5702 5699 5695 5692 5688 5686 5683 5682 5682 5681 5678 5676 5675 5673 5671 5668 5665 5661 5660 5658 5659 5655 5653 5651 5649 5650 5647 5644 5641